Weather Roundup
Issued by NWS Corpus Christi, TX

Home | Current Version | Previous Version | Text Only | Print | Product List | Glossary On
Versions: 1 2 3 4 5 6 7 8 9 10 11 12 13 14 15 16 17 18 19 20 21 22 23 24 25 26 27 28 29 30 31 32 33 34 35 36 37 38 39 40 41 42 43 44 45 46 47 48 49 50
268
ASUS44 KCRP 110910
HRRCRP

SOUTH TEXAS REGIONAL WEATHER ROUNDUP
NATIONAL WEATHER SERVICE CORPUS CHRISTI TX
300 AM CST THU FEB 11 2016


TXZ229>244-111000-
...CORPUS CHRISTI AREA OBSERVATIONS...

CITY           SKY/WX    TMP DP  RH WIND       PRES   REMARKS
CORPUS CHRISTI CLEAR     46  38  73 S9        30.19F
NAS CORPUS CHR CLEAR     58  51  78 S12       30.19F
ROCKPORT       CLEAR     61  51  70 SW8       30.19F
KINGSVILLE NAS CLEAR     47  45  93 S9        30.19F
ALICE            N/A     47  41  80 S7        30.18F
FALFURRIAS     CLEAR     58  46  63 S9        30.18F
$$

...VICTORIA AREA OBSERVATIONS...

CITY           SKY/WX    TMP DP  RH WIND       PRES   REMARKS
VICTORIA       CLEAR     51  47  86 SW8       30.19F
BEEVILLE       FAIR      55  45  68 SW7       30.18F
PLEASANTON     CLEAR     39  35  85 CALM      30.18F
SAN ANTONIO    CLEAR     54  33  45 W7        30.17F
$$

...LAREDO AREA OBSERVATIONS...

CITY           SKY/WX    TMP DP  RH WIND       PRES   REMARKS
LAREDO         CLEAR     56  33  42 SE10      30.17S
COTULLA        CLEAR     52  29  41 SE5       30.16F
DEL RIO        CLEAR     51  27  39 NE8       30.13F
MCALLEN        CLEAR     58  46  64 S10       30.20F
HEBBRONVILLE   NOT AVBL
$$

...OTHER TEXAS OBSERVATIONS...

CITY           SKY/WX    TMP DP  RH WIND       PRES   REMARKS
BROWNSVILLE    PTCLDY    58  53  84 S10       30.22F
HOUSTON        CLEAR     59  48  67 SW10G20   30.17S
COL. STATION   CLEAR     50  40  68 SW7       30.14F
AUSTIN         CLEAR     54  37  52 SW10      30.14F
WACO           CLEAR     47  32  56 S7        30.09S
FORT WORTH     CLEAR     53  31  42 SW12      30.01S
WICHITA FALLS  CLEAR     50  27  40 W6        30.02R
LUBBOCK        CLEAR     35  18  49 W9        30.09R
EL PASO        PTCLDY    41  18  39 CALM      30.22S
$$

...MARINE OBSERVATIONS...

STATION/POSITION TIME  SKY/WX   TEMP    WIND        PRES    VSBY  WAVE   SWELL
                                AIR SEA DIR/SP/G                  HT/PER HT/PER
                 (UTC)          (F)     (DEG/KT/KT) (MB)    (MI)  (FT/S) (FT/S)
PORT ARANSAS     0900            62 60  190/ 15/ 17 1022.9F
BUOY 90 E PORT A 0850            69 68  210/ 21/ 25 1022.3F         4/ 5
BUOY 45 SE BAFFI 0850            65 68  200/ 17/ 23 1022.6F         3/ 4
BUOY 200 E PT IS 0850                                 N/A           2/ 5   2/ 5
BUOY 15 E GALVES 0850            60 58  230/ 12/ 12 1022.0F         2/ 4
$$




USA.gov is the U.S. government's official web portal to all federal, state and local government web resources and services.